| time (UTC) | temp F | wind direction | speed MPH | gust MPH | rain 1hr in | rain 24hr in | rain mn in | humidity % | barometer mb |
| 20260509224716 | 86 | 87 | 0.0 | 3.0 | 0.00 | 0.00 | 0.00 | 55 | 982.9 |
| 20260509223716 | 86 | 0.0 | 0.0 | 0.00 | 0.00 | 0.00 | 56 | 982.8 | |
| 20260509222716 | 86 | 108 | 1.0 | 4.0 | 0.00 | 0.00 | 0.00 | 56 | 982.8 |
| 20260509221736 | 87 | 103 | 0.0 | 1.0 | 0.00 | 0.00 | 0.00 | 56 | 982.8 |
| 20260509220716 | 86 | 79 | 0.0 | 6.0 | 0.00 | 0.00 | 0.00 | 56 | 982.8 |
| 20260509215716 | 86 | 0.0 | 3.0 | 0.00 | 0.00 | 0.00 | 56 | 982.8 | |
| 20260509214716 | 87 | 75 | 2.0 | 6.0 | 0.00 | 0.00 | 0.00 | 56 | 982.9 |
| 20260509213716 | 87 | 135 | 0.0 | 7.0 | 0.00 | 0.00 | 0.00 | 57 | 983.0 |
| 20260509212716 | 87 | 15 | 0.0 | 5.0 | 0.00 | 0.00 | 0.00 | 57 | 983.1 |
| 20260509211716 | 86 | 0.0 | 1.0 | 0.00 | 0.00 | 0.00 | 58 | 983.2 | |
| 20260509210716 | 86 | 92 | 0.0 | 2.0 | 0.00 | 0.00 | 0.00 | 57 | 983.3 |
| 20260509205716 | 87 | 89 | 3.0 | 11.0 | 0.00 | 0.00 | 0.00 | 57 | 983.4 |
| 20260509204716 | 87 | 81 | 0.0 | 2.0 | 0.00 | 0.00 | 0.00 | 57 | 983.6 |
| 20260509203736 | 87 | 77 | 2.0 | 6.0 | 0.00 | 0.00 | 0.00 | 58 | 983.7 |
| 20260509202716 | 86 | 167 | 1.0 | 2.0 | 0.00 | 0.00 | 0.00 | 59 | 983.8 |
| 20260509201756 | 87 | 79 | 2.0 | 5.0 | 0.00 | 0.00 | 0.00 | 58 | 983.9 |
| 20260509200716 | 86 | 0.0 | 1.0 | 0.00 | 0.00 | 0.00 | 58 | 984.0 | |
| 20260509195716 | 87 | 0.0 | 3.0 | 0.00 | 0.00 | 0.00 | 57 | 984.0 | |
| 20260509194736 | 87 | 119 | 1.0 | 3.0 | 0.00 | 0.00 | 0.00 | 58 | 984.0 |
| 20260509193716 | 86 | 81 | 0.0 | 2.0 | 0.00 | 0.00 | 0.00 | 57 | 984.2 |
| 20260509192736 | 87 | 49 | 0.0 | 4.0 | 0.00 | 0.00 | 0.00 | 58 | 984.3 |
| 20260509191716 | 87 | 348 | 0.0 | 1.0 | 0.00 | 0.00 | 0.00 | 57 | 984.4 |
| 20260509190716 | 87 | 55 | 0.0 | 1.0 | 0.00 | 0.00 | 0.00 | 59 | 984.5 |
| 20260509185736 | 86 | 351 | 1.0 | 4.0 | 0.00 | 0.00 | 0.00 | 60 | 984.5 |
| 20260509184716 | 86 | 0.0 | 4.0 | 0.00 | 0.00 | 0.00 | 61 | 984.5 | |
| 20260509183716 | 85 | 0.0 | 4.0 | 0.00 | 0.00 | 0.00 | 62 | 984.6 | |
| 20260509182716 | 85 | 328 | 1.0 | 3.0 | 0.00 | 0.00 | 0.00 | 63 | 984.7 |
| 20260509181736 | 84 | 74 | 0.0 | 2.0 | 0.00 | 0.00 | 0.00 | 63 | 984.7 |
| 20260509180716 | 84 | 335 | 1.0 | 3.0 | 0.00 | 0.00 | 0.00 | 66 | 984.9 |
| 20260509175716 | 83 | 342 | 0.0 | 2.0 | 0.00 | 0.00 | 0.00 | 67 | 985.0 |
| 20260509174716 | 83 | 355 | 1.0 | 3.0 | 0.00 | 0.00 | 0.00 | 66 | 985.1 |
| 20260509173716 | 83 | 46 | 0.0 | 1.0 | 0.00 | 0.00 | 0.00 | 68 | 985.2 |
| 20260509172716 | 82 | 0.0 | 1.0 | 0.00 | 0.00 | 0.00 | 67 | 985.3 | |
| 20260509171736 | 81 | 287 | 1.0 | 3.0 | 0.00 | 0.00 | 0.00 | 70 | 985.5 |
| 20260509170716 | 81 | 356 | 1.0 | 3.0 | 0.00 | 0.00 | 0.00 | 72 | 985.6 |
| 20260509165736 | 81 | 359 | 4.0 | 6.0 | 0.00 | 0.00 | 0.00 | 72 | 985.5 |
| 20260509164716 | 80 | 338 | 1.0 | 3.0 | 0.00 | 0.00 | 0.00 | 74 | 985.5 |
| 20260509163716 | 80 | 347 | 2.0 | 5.0 | 0.00 | 0.00 | 0.00 | 75 | 985.4 |
| 20260509162716 | 79 | 329 | 0.0 | 1.0 | 0.00 | 0.00 | 0.00 | 77 | 985.5 |
| 20260509161716 | 77 | 5 | 0.0 | 2.0 | 0.00 | 0.00 | 0.00 | 78 | 985.4 |
| 20260509160716 | 78 | 358 | 3.0 | 6.0 | 0.00 | 0.00 | 0.00 | 78 | 985.5 |
| 20260509155716 | 77 | 142 | 1.0 | 3.0 | 0.00 | 0.00 | 0.00 | 80 | 985.4 |
| 20260509154716 | 76 | 290 | 2.0 | 4.0 | 0.00 | 0.00 | 0.00 | 81 | 985.5 |
| 20260509153716 | 75 | 304 | 3.0 | 8.0 | 0.00 | 0.00 | 0.00 | 84 | 985.6 |
| 20260509152716 | 74 | 354 | 2.0 | 5.0 | 0.00 | 0.00 | 0.00 | 84 | 985.4 |
| 20260509151756 | 75 | 293 | 1.0 | 3.0 | 0.00 | 0.00 | 0.00 | 83 | 985.4 |
| 20260509150716 | 74 | 7 | 1.0 | 5.0 | 0.00 | 0.00 | 0.00 | 83 | 985.5 |
| 20260509145716 | 74 | 299 | 2.0 | 7.0 | 0.00 | 0.00 | 0.00 | 84 | 985.5 |
| 20260509144716 | 74 | 0 | 1.0 | 6.0 | 0.00 | 0.00 | 0.00 | 85 | 985.5 |
| 20260509143716 | 74 | 293 | 0.0 | 7.0 | 0.00 | 0.00 | 0.00 | 86 | 985.5 |
| 20260509142716 | 73 | 260 | 2.0 | 3.0 | 0.00 | 0.00 | 0.00 | 88 | 985.4 |
| 20260509141716 | 73 | 285 | 3.0 | 7.0 | 0.00 | 0.00 | 0.00 | 88 | 985.3 |
| 20260509140716 | 72 | 296 | 2.0 | 5.0 | 0.00 | 0.00 | 0.00 | 88 | 985.2 |
| 20260509135716 | 72 | 286 | 3.0 | 7.0 | 0.00 | 0.00 | 0.00 | 89 | 985.2 |
| 20260509134736 | 72 | 276 | 3.0 | 7.0 | 0.00 | 0.00 | 0.00 | 90 | 985.2 |
| 20260509133716 | 72 | 281 | 3.0 | 12.0 | 0.00 | 0.00 | 0.00 | 91 | 985.1 |
| 20260509132716 | 71 | 290 | 1.0 | 3.0 | 0.00 | 0.00 | 0.00 | 93 | 984.9 |
| 20260509131716 | 71 | 287 | 3.0 | 6.0 | 0.00 | 0.00 | 0.00 | 93 | 985.0 |
| 20260509130716 | 71 | 293 | 5.0 | 8.0 | 0.00 | 0.00 | 0.00 | 93 | 984.8 |
| 20260509125716 | 70 | 294 | 1.0 | 5.0 | 0.00 | 0.00 | 0.00 | 95 | 985.0 |
| 20260509124736 | 70 | 288 | 2.0 | 7.0 | 0.00 | 0.00 | 0.00 | 95 | 984.8 |
| 20260509123716 | 70 | 290 | 4.0 | 7.0 | 0.00 | 0.00 | 0.00 | 95 | 984.9 |
| 20260509122756 | 69 | 290 | 1.0 | 2.0 | 0.00 | 0.00 | 0.00 | 97 | 984.8 |
| 20260509121716 | 68 | 284 | 0.0 | 1.0 | 0.00 | 0.00 | 0.00 | 97 | 984.8 |
| 20260509120716 | 68 | 0.0 | 0.0 | 0.00 | 0.00 | 0.00 | 97 | 984.8 | |
| 20260509115736 | 68 | 0.0 | 0.0 | 0.00 | 0.00 | 0.00 | 97 | 984.6 | |
| 20260509114716 | 68 | 0.0 | 0.0 | 0.00 | 0.00 | 0.00 | 96 | 984.6 | |
| 20260509113716 | 69 | 0.0 | 0.0 | 0.00 | 0.00 | 0.00 | 96 | 984.3 | |
| 20260509112736 | 69 | 0.0 | 0.0 | 0.00 | 0.00 | 0.00 | 95 | 984.1 | |
| 20260509111716 | 70 | 0.0 | 0.0 | 0.00 | 0.00 | 0.00 | 95 | 983.9 | |
| 20260509110716 | 70 | 0.0 | 0.0 | 0.00 | 0.00 | 0.00 | 94 | 983.8 | |
| 20260509105716 | 70 | 0.0 | 0.0 | 0.00 | 0.00 | 0.00 | 94 | 983.6 | |
| 20260509104716 | 70 | 0.0 | 0.0 | 0.00 | 0.00 | 0.00 | 94 | 983.5 | |
| 20260509103736 | 71 | 0.0 | 0.0 | 0.00 | 0.00 | 0.00 | 94 | 983.6 | |
| 20260509102716 | 71 | 0.0 | 0.0 | 0.00 | 0.00 | 0.00 | 94 | 983.6 | |
| 20260509101716 | 71 | 0.0 | 0.0 | 0.00 | 0.00 | 0.00 | 94 | 983.6 | |
| 20260509100716 | 70 | 0.0 | 0.0 | 0.00 | 0.00 | 0.00 | 94 | 983.5 | |
| 20260509095716 | 70 | 0.0 | 0.0 | 0.00 | 0.00 | 0.00 | 94 | 983.5 | |
| 20260509094715 | 70 | 0.0 | 0.0 | 0.00 | 0.00 | 0.00 | 94 | 983.5 | |
| 20260509093716 | 70 | 0.0 | 0.0 | 0.00 | 0.00 | 0.00 | 95 | 983.3 | |
| 20260509092716 | 70 | 0.0 | 0.0 | 0.00 | 0.00 | 0.00 | 95 | 983.3 | |
| 20260509091716 | 69 | 0.0 | 0.0 | 0.00 | 0.00 | 0.00 | 95 | 982.6 | |
| 20260509090716 | 69 | 0.0 | 1.0 | 0.00 | 0.00 | 0.00 | 94 | 982.1 | |
| 20260509085716 | 70 | 83 | 0.0 | 3.0 | 0.00 | 0.00 | 0.00 | 94 | 981.8 |
| 20260509084716 | 70 | 152 | 0.0 | 3.0 | 0.00 | 0.00 | 0.00 | 94 | 981.9 |
| 20260509083716 | 70 | 142 | 1.0 | 2.0 | 0.00 | 0.00 | 0.00 | 93 | 982.3 |
| 20260509082736 | 70 | 132 | 1.0 | 3.0 | 0.00 | 0.00 | 0.00 | 93 | 982.6 |
| 20260509081716 | 70 | 152 | 1.0 | 2.0 | 0.00 | 0.00 | 0.00 | 92 | 983.1 |
| 20260509080716 | 71 | 0.0 | 0.0 | 0.00 | 0.00 | 0.00 | 92 | 983.8 | |
| 20260509075716 | 71 | 0.0 | 0.0 | 0.00 | 0.00 | 0.00 | 91 | 984.0 | |
| 20260509074736 | 71 | 0.0 | 0.0 | 0.00 | 0.00 | 0.00 | 91 | 984.2 | |
| 20260509073716 | 71 | 0.0 | 0.0 | 0.00 | 0.00 | 0.00 | 91 | 984.6 | |
| 20260509072716 | 71 | 221 | 0.0 | 2.0 | 0.00 | 0.00 | 0.00 | 91 | 984.7 |
| 20260509071716 | 71 | 0.0 | 3.0 | 0.00 | 0.00 | 0.00 | 91 | 985.1 | |
| 20260509070716 | 71 | 0.0 | 4.0 | 0.00 | 0.00 | 0.00 | 91 | 985.2 | |
| 20260509065716 | 71 | 258 | 1.0 | 3.0 | 0.00 | 0.00 | 0.00 | 90 | 985.1 |
| 20260509064736 | 71 | 248 | 1.0 | 5.0 | 0.00 | 0.00 | 0.00 | 90 | 984.8 |
| 20260509063716 | 71 | 227 | 1.0 | 3.0 | 0.00 | 0.00 | 0.00 | 91 | 984.4 |
| 20260509062716 | 71 | 222 | 0.0 | 1.0 | 0.00 | 0.00 | 0.00 | 90 | 984.6 |
| 20260509061716 | 71 | 0.0 | 0.0 | 0.00 | 0.00 | 0.00 | 90 | 985.0 | |
| 20260509060716 | 71 | 0.0 | 0.0 | 0.00 | 0.00 | 0.00 | 89 | 984.7 | |
| 20260509055836 | 71 | 0.0 | 0.0 | 0.00 | 0.00 | 0.00 | 88 | 985.3 | |
| 20260509054716 | 71 | 0.0 | 0.0 | 0.00 | 0.00 | 0.00 | 87 | 985.4 | |
| 20260509053716 | 72 | 268 | 0.0 | 1.0 | 0.00 | 0.00 | 0.00 | 87 | 985.3 |
| 20260509052836 | 72 | 192 | 1.0 | 1.0 | 0.00 | 0.00 | 0.00 | 86 | 985.6 |
| 20260509051716 | 71 | 345 | 0.0 | 1.0 | 0.00 | 0.00 | 0.00 | 88 | 986.2 |
| 20260509050716 | 71 | 349 | 0.0 | 1.0 | 0.00 | 0.00 | 0.00 | 87 | 985.5 |
| 20260509045716 | 71 | 189 | 0.0 | 1.0 | 0.00 | 0.00 | 0.00 | 86 | 984.7 |
| 20260509044716 | 71 | 0.0 | 0.0 | 0.00 | 0.00 | 0.00 | 86 | 984.7 | |
| 20260509043736 | 71 | 0.0 | 1.0 | 0.00 | 0.00 | 0.00 | 85 | 984.2 | |
| 20260509042716 | 72 | 0.0 | 0.0 | 0.00 | 0.00 | 0.00 | 84 | 984.7 | |
| 20260509041716 | 72 | 117 | 0.0 | 1.0 | 0.00 | 0.00 | 0.00 | 83 | 984.5 |
| 20260509040716 | 72 | 153 | 1.0 | 2.0 | 0.00 | 0.00 | 0.00 | 83 | 984.7 |
| 20260509035716 | 72 | 0.0 | 1.0 | 0.00 | 0.00 | 0.00 | 82 | 985.0 | |
| 20260509034716 | 72 | 0.0 | 0.0 | 0.00 | 0.00 | 0.00 | 83 | 985.5 | |
| 20260509033716 | 72 | 0.0 | 0.0 | 0.00 | 0.00 | 0.00 | 83 | 985.3 | |
| 20260509032716 | 72 | 0.0 | 0.0 | 0.00 | 0.00 | 0.00 | 83 | 985.0 | |
| 20260509031716 | 72 | 0.0 | 0.0 | 0.00 | 0.00 | 0.00 | 83 | 985.0 | |
| 20260509030736 | 72 | 0.0 | 0.0 | 0.00 | 0.00 | 0.00 | 83 | 984.8 | |
| 20260509025716 | 72 | 0.0 | 0.0 | 0.00 | 0.00 | 0.00 | 83 | 984.6 | |
| 20260509024717 | 72 | 0.0 | 1.0 | 0.00 | 0.00 | 0.00 | 82 | 984.3 | |
| 20260509023716 | 72 | 0.0 | 0.0 | 0.00 | 0.00 | 0.00 | 82 | 983.9 | |
| 20260509022716 | 72 | 0.0 | 0.0 | 0.00 | 0.00 | 0.00 | 82 | 983.9 | |
| 20260509021716 | 73 | 0.0 | 0.0 | 0.00 | 0.00 | 0.00 | 81 | 983.7 | |
| 20260509020716 | 73 | 155 | 0.0 | 1.0 | 0.00 | 0.00 | 0.00 | 81 | 983.7 |
| 20260509015716 | 73 | 0.0 | 0.0 | 0.00 | 0.00 | 0.00 | 80 | 983.8 | |
| 20260509014716 | 73 | 0.0 | 2.0 | 0.00 | 0.00 | 0.00 | 79 | 983.7 | |
| 20260509013716 | 73 | 0.0 | 0.0 | 0.00 | 0.00 | 0.00 | 79 | 983.6 | |
| 20260509012716 | 73 | 0.0 | 0.0 | 0.00 | 0.00 | 0.00 | 78 | 983.6 | |
| 20260509011716 | 73 | 0.0 | 0.0 | 0.00 | 0.00 | 0.00 | 78 | 983.5 | |
| 20260509010716 | 73 | 0.0 | 0.0 | 0.00 | 0.00 | 0.00 | 77 | 983.4 | |
| 20260509005716 | 74 | 0.0 | 0.0 | 0.00 | 0.00 | 0.00 | 77 | 983.2 | |
| 20260509004716 | 74 | 175 | 0.0 | 1.0 | 0.00 | 0.00 | 0.00 | 76 | 983.0 |
| 20260509003736 | 74 | 0.0 | 1.0 | 0.00 | 0.00 | 0.00 | 75 | 982.9 | |
| 20260509002716 | 74 | 0.0 | 0.0 | 0.00 | 0.00 | 0.00 | 75 | 982.9 | |
| 20260509001716 | 74 | 157 | 0.0 | 3.0 | 0.00 | 0.00 | 0.00 | 74 | 982.9 |
| 20260509000716 | 75 | 0.0 | 0.0 | 0.00 | 0.00 | 0.00 | 73 | 983.0 | |
| 20260508235716 | 75 | 0.0 | 1.0 | 0.00 | 0.00 | 0.00 | 72 | 983.2 | |
| 20260508234716 | 75 | 0.0 | 1.0 | 0.00 | 0.00 | 0.00 | 71 | 983.3 | |
| 20260508233716 | 75 | 0.0 | 0.0 | 0.00 | 0.00 | 0.00 | 71 | 983.3 | |
| 20260508232736 | 76 | 0.0 | 2.0 | 0.00 | 0.00 | 0.00 | 69 | 983.4 | |
| 20260508231736 | 76 | 157 | 0.0 | 2.0 | 0.00 | 0.00 | 0.00 | 69 | 983.4 |
| 20260508230716 | 77 | 154 | 0.0 | 2.0 | 0.00 | 0.00 | 0.00 | 67 | 983.5 |
| 20260508225716 | 77 | 0.0 | 0.0 | 0.00 | 0.00 | 0.00 | 67 | 983.5 |